Location: Ida-Niidu
(58.2581°N, 22.5025°E)
Time: 15:07:12
(UTC+00:00)

Daily predictions for brighter satellites

Satellite Brightness Start Highest point End
(mag) Time Altitude Azimuth Time Altitude Azimuth Time Altitude Azimuth
Cosmos 2344 4.1 14:20:02 10° WNW 14:28:07 65° N 14:38:47 10° E
Cosmos 2278 Rocket 2.6 14:23:01 10° NW 14:28:41 72° WSW 14:34:19 10° SSE
CZ-4B R/B 3.2 14:23:34 10° SSE 14:28:56 69° ENE 14:34:26 10° NNW
Cosmos 2333 4.5 14:23:27 10° SSW 14:29:06 61° ESE 14:34:49 10° NE
Cosmos 1606 3.2 14:25:45 10° SSW 14:29:31 62° WNW 14:33:22 10° N
Cosmos 2360 Rocket 2.3 14:27:35 10° SW 14:33:18 83° NW 14:39:02 10° NE
Cosmos 2322 3.8 14:28:21 10° SSW 14:34:02 72° ESE 14:39:44 10° NE
YAOGAN 6 4.4 14:35:27 10° ENE 14:37:06 13° NE 14:38:45 10° NNE
Cosmos 2369 Rocket 2.8 14:33:09 10° NW 14:38:19 35° NNE 14:43:29 10° E
Cosmos 1151 Rocket 4.4 14:34:35 10° SW 14:38:38 36° WNW 14:42:42 10° N
COSMOS 2455 3.2 14:33:50 10° WSW 14:39:49 62° NNW 14:45:49 10° NE
Cosmos 1980 Rocket 3.4 14:35:16 10° W 14:40:18 31° NNW 14:45:20 10° NE
Cosmos 1933 4.4 14:38:38 10° SW 14:42:30 45° WNW 14:46:23 10° N
NOSS 2-2 (D) 3.7 14:40:50 10° WSW 14:44:46 69° NNW 14:49:45 10° ENE
STARLINK-67 4.5 14:44:14 10° WSW 14:46:39 27° S 14:49:04 10° ESE
Helios 1A Rocket 2.9 14:42:38 10° SSE 14:46:44 77° ENE 14:50:49 10° NNW
Okean 2 Rocket 4.5 14:47:04 10° N 14:50:09 18° NE 14:53:14 10° E
Cosmos 1269 Rocket 4.1 14:45:08 10° SSW 14:50:27 89° ESE 14:55:49 10° NNE
Cosmos 1862 Rocket 4.3 14:46:38 10° SSE 14:50:34 33° E 14:54:34 10° NNE
RESURS DK-1 2.7 14:47:25 10° SSW 14:51:25 51° ESE 14:55:18 11° NE
SL-16 R/B 3.8 14:49:37 10° SE 14:52:53 16° E 14:55:54 11° ENE
Cosmos 1743 3.9 14:50:19 10° N 14:53:25 22° ENE 14:56:30 10° ESE
CORIOLIS 4.4 14:48:38 10° SE 14:53:49 46° ENE 14:59:00 10° N
Feng Yun 1-1 Rocket 4.3 14:49:35 10° SE 14:54:49 53° ENE 15:00:09 10° NNW
SMAP 3.3 14:50:29 10° SE 14:54:56 46° ENE 14:59:25 10° N
Cosmos 1536 2.9 14:51:13 10° N 14:55:13 55° ENE 14:59:09 10° SSE
NOSS 3-1 (C) 3.9 14:49:38 10° WNW 14:56:19 67° NNE 15:04:16 10° ESE
Landsat 5 3.5 14:52:33 10° NNE 14:56:32 77° WNW 15:00:39 10° SSW
Cosmos 2237 Rocket 2.9 14:54:41 10° S 14:59:49 36° ESE 15:04:36 12° NE
Cosmos 1943 Rocket 2.5 14:55:56 10° NW 15:01:25 46° NE 15:06:49 10° ESE
SL-08 R/B 4.0 14:57:10 10° NNE 15:02:00 56° WNW 15:06:44 10° SW
Cosmos 2322 Rocket 3.0 14:57:27 10° WSW 15:02:49 43° NW 15:08:15 10° NE
CZ-4B R/B 1.4 14:59:25 10° NNE 15:02:58 73° ESE 15:06:25 10° S
Meteor 2-6 Rocket 4.1 14:59:51 10° S 15:05:13 71° ESE 15:10:44 10° NNE
Cosmos 1707 Rocket 3.6 15:00:52 10° S 15:05:21 81° E 15:09:51 10° NNE
USA 267 3.9 14:59:11 10° SE 15:05:40 60° SSW 15:12:09 10° WNW
Lacrosse 5 rocket 2.3 15:01:56 10° SW 15:05:55 39° SSE 15:09:17 12° E
Cosmos 2219 Rocket 2.2 15:00:33 10° SSW 15:06:10 75° ESE 15:11:38 11° NE
ALOS 3.0 15:02:33 10° S 15:07:09 59° WSW 15:11:49 10° NNW
Cosmos 1697 Rocket 4.1 15:02:43 10° WNW 15:07:12 24° N 15:11:22 11° NE
USA 229 DEB 3.8 15:00:19 10° WNW 15:07:20 70° NNE 15:14:43 10° ESE
USA 229 3.8 15:00:25 10° WNW 15:07:25 70° NNE 15:14:48 10° ESE
Cosmos 2333 Rocket 2.3 15:02:11 10° SSW 15:07:56 77° ESE 15:13:30 11° NE
Cosmos 1500 3.3 15:04:18 10° NNW 15:08:06 79° W 15:11:50 10° S
Radarsat Rocket 4.2 15:02:39 10° SSE 15:08:35 77° WSW 15:14:28 10° NNW
SL-4 R/B 3.4 15:06:28 10° SW 15:09:44 30° S 15:13:13 10° ESE
Cosmos 1812 3.0 15:08:37 10° S 15:12:22 49° E 15:16:08 10° NNE
NOSS 3-1 (A) 3.9 15:05:59 10° WNW 15:12:38 64° NNE 15:20:30 10° E
Okean O Rocket 2.2 15:09:41 10° S 15:14:00 62° WSW 15:18:21 10° NNW
SL-16 R/B 3.2 15:08:52 10° W 15:14:07 37° NNW 15:19:13 11° NE
NOSS 3-4 (A) 3.5 15:08:03 10° SW 15:14:12 88° SSE 15:19:58 15° ENE
NOSS 3-4 (C) 3.5 15:08:09 10° SW 15:14:19 88° SE 15:20:04 15° ENE
Cosmos 292 Rocket 4.1 15:09:30 10° NNW 15:14:23 73° WSW 15:19:14 10° SSE
Cosmos 1092 Rocket 4.5 15:10:32 10° SSE 15:16:15 39° E 15:21:57 10° NNE
Transit 2A Rocket 4.5 15:12:14 10° SW 15:16:38 86° SE 15:20:05 16° NE
Aureole 1 Rocket 3.9 15:14:53 10° SSE 15:17:15 19° E 15:18:15 17° ENE
Envisat 3.3 15:13:37 10° SE 15:18:27 45° ENE 15:23:17 10° N
Cosmos 1908 Rocket 3.5 15:14:44 10° N 15:19:09 67° ENE 15:23:30 10° SSE
Cosmos 2251 Rocket 3.7 15:15:23 10° S 15:20:33 57° ESE 15:25:11 13° NE
Cosmos 2242 Rocket 4.1 15:17:46 10° SSE 15:22:05 42° E 15:26:26 10° NNE
Cosmos 1782 3.9 15:18:53 10° SW 15:22:42 44° WNW 15:26:33 10° N
NOSS 2-2 (C) 4.0 15:18:45 10° W 15:22:44 54° NNW 15:26:27 17° ENE
Okean 1-7 4.1 15:20:55 10° SE 15:24:32 26° E 15:26:57 16° NE
CSL-04 Rocket 4.3 15:21:03 10° ESE 15:25:43 33° NE 15:30:27 10° N
Cosmos 405 Rocket 3.8 15:22:53 10° N 15:25:50 22° ENE 15:27:20 17° E
H-2A R/B 3.7 15:23:55 10° N 15:27:27 28° WNW 15:30:59 10° WSW
COSMO-SKYMED 1 4.2 15:28:07 16° E 15:28:07 16° E 15:30:29 10° SE
Cosmos 1980 3.9 15:26:11 10° SSW 15:31:42 56° ESE 15:36:03 17° NE
Exosat Rocket 3.6 15:28:40 10° SSW 15:33:35 58° ESE 15:37:43 16° NE
Cosmos 1315 Rocket 4.0 15:33:24 10° SW 15:37:16 42° WNW 15:41:12 10° N
Cosmos 2297 4.1 15:31:38 10° NW 15:37:20 68° WSW 15:42:57 10° SSE
Cosmos 1441 Rocket 3.0 15:34:11 10° NNW 15:38:03 79° ENE 15:41:49 10° SSE
YAOGAN 1 3.3 15:34:39 10° ESE 15:38:27 31° ENE 15:42:17 10° N
Cosmos 1733 Rocket 4.4 15:34:36 10° NNW 15:38:45 43° W 15:42:55 10° SSW
Okean-O 2.6 15:34:57 10° SSE 15:39:20 62° ENE 15:43:44 10° NNW
CZ-4 R/B 1.9 15:37:07 10° SE 15:40:36 33° ENE 15:44:06 10° N
Meteor 1-28 Rocket 4.4 15:37:21 10° N 15:40:56 42° WNW 15:44:31 10° SW
SL-16 R/B 4.1 15:36:14 10° N 15:41:18 28° NW 15:46:22 10° WSW
NOAA 12 4.0 15:37:43 10° SSE 15:42:59 74° ENE 15:48:16 10° NNW
S3M 4.3 15:37:18 10° N 15:43:13 42° ENE 15:49:02 10° SE
Meteor 1-10 Rocket 4.4 15:37:45 10° SSW 15:43:21 76° WNW 15:49:05 10° NNE
NOSS 2-2 (E) 4.2 15:39:20 10° W 15:43:28 49° N 15:46:37 22° ENE
Cosmos 921 Rocket 3.2 15:39:22 10° NNW 15:43:38 73° WSW 15:47:58 10° SSE
Cosmos 2263 4.4 15:38:51 10° NW 15:44:34 54° NE 15:50:15 10° ESE
H-2A R/B 2.7 15:42:23 10° SSE 15:46:04 81° WSW 15:49:47 10° NNW
CSL-04 Debris 4.5 15:42:11 10° SE 15:47:18 44° ENE 15:52:26 10° N
H-2A R/B 3.7 15:48:47 15° NNE 15:48:47 15° NNE 15:50:41 10° N
Cosmos 1975 3.1 15:45:13 10° N 15:49:05 44° ENE 15:52:55 10° SE
Nadezhda 4 Rocket 4.0 15:43:00 10° S 15:49:19 82° E 15:55:38 10° NNE
SeaSat 1 3.4 15:50:09 24° ENE 15:51:44 29° NNE 15:55:56 10° NNW
Cosmos 1666 3.1 15:48:14 10° NNW 15:51:58 62° W 15:55:39 10° S
ATLAS 2AS CENTAUR R/B 3.2 15:44:09 10° WSW 15:52:13 70° NNW 15:57:45 22° ENE
Lacrosse 4 Rocket 2.2 15:50:04 10° NW 15:53:51 33° NNE 15:54:52 29° NE
Cosmos 1689 Rocket 3.0 15:51:25 13° N 15:53:57 48° WNW 15:56:53 10° SW
Cosmos 1553 Rocket 4.1 15:47:47 10° N 15:54:05 58° ENE 16:00:25 10° SSE
Uosat 12 SS-18 rocket 4.5 15:50:36 10° NW 15:55:48 72° SW 16:00:14 10° SE
Meteor 1-27 Rocket 3.8 15:51:59 10° SSW 15:57:49 87° WNW 16:03:48 10° NNE
NOSS 0 Rocket 3.9 15:51:57 10° SSW 15:58:12 83° SE 16:02:42 20° NE
COSMOS 2428 3.1 15:55:19 10° SW 16:00:57 62° NW 16:05:12 18° NNE
Ariane Rocket 3.7 16:00:38 28° ENE 16:01:46 31° NE 16:06:10 10° N
Cosmos 2151 Rocket 4.0 15:58:00 10° N 16:02:11 39° ENE 16:06:19 10° SE
Cosmos 1867 4.5 15:57:04 10° NW 16:02:22 51° SW 16:07:37 10° SSE
Meteor 2-9 Rocket 4.3 15:57:43 10° NNW 16:03:35 61° ENE 16:09:20 10° SSE
Aureole 2 Rocket 4.5 16:01:21 10° N 16:02:11 14° N 16:02:11 14° N
Cosmos 1763 Rocket 3.8 15:59:25 10° NNW 16:04:16 42° NE 16:06:26 28° E
PSLV R/B 3.9 16:05:26 16° NNE 16:08:45 88° WNW 16:12:52 10° SSW
YAOGAN 6 2.4 16:06:22 10° SSE 16:09:57 69° ENE 16:13:36 10° N
Cosmos 2026 Rocket 3.9 16:04:32 10° S 16:10:29 60° E 16:16:29 10° NNE
USA 215 3.8 16:07:16 25° E 16:10:48 45° SE 16:17:01 10° SW
NOAA 11 4.3 16:08:52 10° SE 16:14:10 52° ENE 16:19:30 10° NNW
Cosmos 1782 Rocket 3.8 16:10:02 10° NNW 16:14:23 69° W 16:18:42 10° S
COBE Rocket 3.7 16:10:44 14° NNE 16:14:49 81° ESE 16:19:32 10° SSW
SKYMED 2 4.2 16:16:46 35° ESE 16:16:46 35° ESE 16:20:26 10° SSE
Cosmos 2360 Rocket 3.5 16:12:59 10° W 16:18:05 33° NNW 16:21:31 18° NNE
Cosmos 1263 4.4 16:16:42 10° SSW 16:19:43 73° WNW 16:21:00 34° N
Cosmos 1656 Rocket 3.6 16:16:40 10° NW 16:22:04 58° NE 16:24:34 31° ESE
Cosmos 2369 Rocket 2.2 16:17:18 10° NW 16:22:58 85° SW 16:28:38 10° SSE
Cosmos 1190 Rocket 4.2 16:18:23 10° S 16:23:22 48° ESE 16:24:37 39° ENE
Cosmos 1980 Rocket 3.6 16:21:33 10° NW 16:26:03 23° N 16:27:39 20° NNE
Cosmos 1417 Rocket 4.3 16:19:55 10° NNW 16:26:06 82° ENE 16:32:16 10° SSE
COSMOS 2455 3.7 16:21:11 10° WNW 16:26:46 37° N 16:29:13 27° NE
Cosmos 614 Rocket 3.9 16:22:04 10° S 16:27:02 57° ESE 16:28:31 41° ENE
Meteor 1-18 Rocket 4.2 16:22:30 10° S 16:28:02 58° E 16:31:17 24° NNE
Okean 2 Rocket 3.0 16:24:29 10° NNW 16:28:59 83° ENE 16:33:30 10° SSE
Cosmos 1743 3.3 16:25:43 10° NNW 16:29:32 57° W 16:33:21 10° S
RESURS DK-1 3.5 16:25:45 10° WSW 16:29:38 38° NW 16:31:12 27° N
Cosmos 1939 Rocket 4.2 16:31:50 26° N 16:31:50 26° N 16:33:43 10° N
Cosmos 2315 Rocket 4.2 16:23:53 10° N 16:29:59 45° ENE 16:33:41 23° SE
STARLINK-46 4.5 16:27:57 10° WSW 16:29:56 24° SSW 16:29:56 24° SSW
Cosmos 1703 Rocket 3.6 16:27:32 10° SSW 16:32:02 83° WNW 16:34:55 22° N
Sich 1 Rocket 4.1 16:29:48 10° NNW 16:34:10 60° W 16:38:29 10° S
CZ-4B R/B 4.1 16:32:31 10° NNW 16:34:54 17° NW 16:37:17 10° W
Cosmos 841 Rocket 3.8 16:29:57 10° NNW 16:34:55 44° NE 16:35:08 43° NE
SL-16 R/B 2.2 16:30:21 10° SSW 16:35:57 63° ESE 16:37:48 41° ENE
NOSS 2-2 (D) 4.3 16:31:45 10° WNW 16:35:59 47° N 16:37:08 40° NE
Cosmos 1174 4.1 16:35:37 10° SSW 16:39:39 51° SSE 16:39:39 51° SSE
Cosmos 2221 Rocket 3.9 16:35:52 10° S 16:39:27 47° SE 16:39:27 47° SE
Cosmos 2344 4.2 16:34:37 10° WNW 16:43:26 85° SW 16:55:17 11° SE
Cosmos 2237 Rocket 2.4 16:37:56 10° SW 16:43:38 67° NW 16:46:26 31° NNE
Lacrosse 5 rocket 1.2 16:40:40 10° WSW 16:44:49 72° S 16:44:56 72° SSE
Cosmos 1943 Rocket 2.8 16:39:51 10° NW 16:45:24 58° WSW 16:50:52 10° SSE
Meteor 2-8 Rocket 4.4 16:40:00 10° N 16:46:00 58° ENE 16:49:59 22° SE
NOSS 3-1 (C) 4.2 16:40:30 10° WNW 16:47:32 69° SW 16:55:30 11° SE
Cosmos 1627 Rocket 4.5 16:41:45 10° SSW 16:47:52 81° WNW 16:54:07 10° NNE
Cosmos 2322 Rocket 3.7 16:43:44 10° WNW 16:48:18 24° N 16:50:08 21° NNE
Cosmos 540 Rocket 3.8 16:43:44 10° NNW 16:48:12 44° NNE 16:48:12 44° NNE
SL-4 R/B 3.5 16:45:28 10° WSW 16:48:44 27° SSW 16:49:31 25° S
GENESIS II 4.2 16:46:25 10° NW 16:50:23 79° NNW 16:50:23 79° NNW
Cosmos 2219 Rocket 3.2 16:45:19 10° WSW 16:50:36 39° NNW 16:53:21 24° NNE
Cosmos 2333 Rocket 3.3 16:47:20 10° WSW 16:52:44 39° NNW 16:55:29 25° NNE
Cosmos 1697 Rocket 3.9 16:48:20 10° NW 16:53:00 26° NNE 16:53:05 26° NNE
Cosmos 1140 Rocket 3.4 16:48:18 10° SSW 16:53:22 63° ESE 16:53:37 62° E
Okean 1 3.3 16:52:46 10° SSW 16:56:45 76° WNW 16:56:45 76° WNW
Envisat 4.3 16:52:45 10° SSW 16:57:33 41° W 17:02:24 10° NNW
USA 229 DEB 4.3 16:51:25 10° WNW 16:58:24 61° SW 17:04:59 13° SSE
USA 229 4.2 16:51:31 10° WNW 16:58:30 61° SW 17:05:00 14° SSE
Cosmos 468 Rocket 3.9 16:53:42 10° NNW 16:58:54 84° WSW 17:01:10 35° SSE
SL-16 R/B 3.7 16:55:17 10° WNW 16:59:48 23° N 17:01:04 22° NNE
Aureole 1 Rocket 3.4 16:58:04 10° SW 17:00:55 48° WNW 17:00:55 48° WNW
Okean 1-7 3.7 16:57:33 10° SSW 17:01:51 55° WNW 17:03:50 29° N
Cosmos 405 Rocket 3.3 16:58:31 10° NNW 17:02:09 54° W 17:02:41 48° SW
Cosmos 1023 Rocket 4.3 16:57:11 10° SSW 17:02:16 73° ESE 17:02:25 72° E
Meteor 2-13 Rocket 4.3 16:57:14 10° S 17:03:16 69° E 17:05:55 35° NNE
NOSS 3-1 (A) 4.1 16:56:55 10° WNW 17:03:59 74° SW 17:08:59 26° SE
COSMO-SKYMED 1 2.8 17:05:20 63° S 17:05:20 63° S 17:09:00 10° SSW
Cosmos 1655 Rocket 3.8 16:58:30 10° S 17:04:45 73° E 17:08:53 23° NNE
Cosmos 1300 Rocket 3.9 17:01:15 10° NNW 17:05:33 64° W 17:09:49 10° S
NOSS 3-4 (A) 3.9 16:59:22 10° W 17:05:37 58° N 17:07:24 45° NE
NOSS 3-4 (C) 3.9 16:59:29 10° W 17:05:43 58° N 17:07:30 45° NE
Meteor 2-4 Rocket 3.9 17:00:01 10° S 17:05:02 54° SE 17:05:02 54° SE
CSL-04 Rocket 3.9 17:00:32 10° S 17:05:47 66° WSW 17:11:09 10° NNW
Meteor 1-15 Rocket 4.2 17:01:52 10° NNW 17:07:05 60° NE 17:07:05 60° NE
Cosmos 407 Rocket 3.5 17:02:28 10° SSW 17:07:44 84° WNW 17:08:46 59° NNE
NOSS 2-2 (C) 4.3 17:09:38 10° WNW 17:13:51 50° N 17:13:51 50° N
YAOGAN 1 3.4 17:10:13 10° S 17:14:25 50° W 17:18:40 10° NNW
CZ-4 R/B 2.7 17:12:03 10° SSW 17:15:39 36° W 17:19:15 10° NNW
Cosmos 1980 4.5 17:10:32 10° WSW 17:15:59 47° NW 17:17:55 34° N
Meteor 1-19 Rocket 4.0 17:12:24 10° SSW 17:17:53 88° WNW 17:18:56 60° NNE
Cosmos 2208 Rocket 3.9 17:14:07 10° NNW 17:19:36 87° ENE 17:19:43 85° ESE
Cosmos 1814 Rocket 4.2 17:17:39 10° NNW 17:22:03 60° N 17:22:03 60° N
ARGOS 4.4 17:26:30 29° N 17:26:30 29° N 17:29:10 10° NNW
H-2A R/B 3.7 17:29:24 22° N 17:29:24 22° N 17:31:10 10° N
SeaSat 1 2.9 17:29:56 53° NNW 17:29:56 53° NNW 17:33:45 10° NW
Lacrosse 4 Rocket 2.8 17:28:44 10° NW 17:31:11 34° NW 17:31:11 34° NW
Cosmos 1570 Rocket 4.1 17:28:45 10° NNW 17:34:00 70° WSW 17:34:01 70° WSW
Cosmos 2266 Rocket 3.9 17:33:54 10° S 17:40:18 85° ESE 17:40:18 85° ESE
Ariane Rocket 3.3 17:40:51 64° WNW 17:40:51 64° WNW 17:45:32 10° NNW
Lacrosse 5 4.1 17:38:04 10° SSW 17:38:59 14° SSW 17:38:59 14° SSW
ATLAS 2AS CENTAUR R/B 3.1 17:36:15 10° WNW 17:44:11 59° N 17:45:11 56° NE
Cosmos 1763 Rocket 4.1 17:41:19 10° NW 17:46:14 50° WSW 17:46:30 49° WSW
COSMOS 2428 4.1 17:41:25 10° W 17:46:19 28° NNW 17:47:13 27° N
MOS 1 4.4 17:48:53 70° NW 17:48:53 70° NW 17:54:00 10° NNW
CZ-4C R/B 4.2 17:48:26 10° SSW 17:49:23 15° SSW 17:49:23 15° SSW
USA 215 3.2 17:54:37 74° S 17:54:37 74° S 18:00:58 10° WSW
Cosmos 2360 Rocket 3.9 17:59:18 10° NW 18:03:16 23° N 18:03:16 23° N
Cosmos 2369 Rocket 4.3 18:02:02 10° NW 18:06:19 23° WSW 18:10:35 10° SSW
Cosmos 1980 Rocket 3.9 18:06:35 10° NW 18:09:25 24° NNW 18:09:25 24° NNW
COSMOS 2455 4.0 18:08:17 10° NW 18:12:21 35° NNW 18:12:21 35° NNW
SL-16 R/B 3.2 18:14:57 10° WSW 18:19:42 42° WNW 18:19:42 42° WNW
Lacrosse 5 rocket 4.3 18:19:52 10° W 18:20:34 14° W 18:20:34 14° W
Cosmos 2237 Rocket 3.8 18:23:45 10° W 18:28:16 29° NNW 18:28:16 29° NNW
Cosmos 2322 Rocket 4.2 18:29:30 10° NW 18:31:57 20° NNW 18:31:57 20° NNW
Cosmos 2219 Rocket 4.1 18:31:35 10° WNW 18:35:04 22° NNW 18:35:04 22° NNW
Cosmos 2333 Rocket 4.1 18:33:53 10° WNW 18:37:31 23° NNW 18:37:31 23° NNW
SL-16 R/B 4.3 18:40:50 10° NW 18:42:56 19° NNW 18:42:56 19° NNW
ATLAS 2AS CENTAUR R/B 4.1 19:27:59 10° WNW 19:32:36 39° NW 19:32:36 39° NW
